Other Public Products
Issued by NWS Grand Forks, ND

Home | Current Version | Previous Version | Graphics & Text | Print | Product List | Glossary On
Versions: 1 2 3 4 5 6 7 8 9 10 11 12 13 14 15 16 17 18 19 20 21 22 23 24 25 26 27 28 29 30 31 32 33 34 35 36 37 38 39 40 41 42 43 44 45 46 47 48 49 50
000
FPUS83 KFGF 220110
OPUFGF
PRAIRIE TO PINES WEATHER ROUNDUP
NATIONAL WEATHER SERVICE EASTERN NORTH DAKOTA/GRAND FORKS ND
700 PM CST SAT JAN 21 2017

 **SATELLITE DATA USED TO AUGMENT SKY COVER AT AUTOMATED STATIONS**
 *****  WEATHER ACROSS EASTERN NORTH DAKOTA  *****

CITY           SKY/WX    TMP DP  RH WIND       PRES   REMARKS
GRAND FORKS    LGT RAIN  35  33  92 E3        29.51R FOG
GRAND FORKS AF FOG       32  32 100 CALM      29.51R VSB 1/2
GRAND CITY NWS NOT AVBL
BUXTON         NOT AVBL
DEVILS LAKE    CLOUDY    33  33 100 CALM      29.49R
FARGO          CLOUDY    37  34  89 CALM      29.51R
WAHPETON ARPT  CLOUDY    34  32  93 CALM      29.51R VSB 1/2
$$

 *****  WEATHER ACROSS CENTRAL AND WESTERN NORTH DAKOTA  *****

CITY           SKY/WX    TMP DP  RH WIND       PRES   REMARKS
JAMESTOWN      CLOUDY    33  32  96 NW6       29.49R
BISMARCK       CLOUDY    29  27  92 W3        29.51R
MINOT          CLOUDY    27  25  92 W7        29.47R WCI  19
MINOT AFB      CLOUDY    27  25  93 SW6       29.47R WCI  20
GARRISON         N/A     24  22  91 W7        29.48R WCI  16
WILLISTON      CLOUDY    30  28  92 NW14      29.52R WCI  19
DICKINSON      FAIR      24  19  81 W16       29.47R WCI  11
HETTINGER      FAIR      20  17  88 W12       29.52R WCI   8
$$

 *****  OTHER OBSERVATIONS NORTHEAST NORTH DAKOTA  *****

CITY           SKY/WX    TMP DP  RH WIND       PRES   REMARKS
WALHALLA       NOT AVBL
LANGDON        NOT AVBL
CAVALIER       FOG       34  34 100 CALM      29.52S VSB 3/4
GRAFTON        CLOUDY    32  32 100 E3        29.53S FOG
CANDO          NOT AVBL
FORT TOTTEN      N/A     32  32 100 CALM      29.95S
ROLLA            N/A    N/A N/A N/A MISG        N/A
RUGBY            N/A     32  32 100 SW5       29.48R
 ***** THE ABOVE OBSERVATIONS ARE NON NWS ARE NOT QUALITY
        CONTROLLED AND MAY MIS-REPORT RAIN FOR SNOW...
$$

 *****  OTHER OBSERVATIONS SOUTHEAST NORTH DAKOTA *****

CITY           SKY/WX    TMP DP  RH WIND       PRES   REMARKS
COOPERSTOWN    CLOUDY    32  32 100 E5        29.50R FOG
VALLEY CITY    FOG       32  32 100 CALM      29.51R VSB 1/4
OAKES          NOT AVBL
GWINNER        CLOUDY    34  34 100 CALM      29.49R VSB 1/4
SHEYENNE NWR     N/A     33  33 100 CALM      29.95S
BUFFALO        NOT AVBL
WYNDMERE       NOT AVBL
 ***** THE ABOVE OBSERVATIONS ARE NON NWS ARE NOT QUALITY
       CONTROLLED AND MAY MIS-REPORT RAIN FOR SNOW...
$$

  *****  WEATHER ACROSS NORTHERN MINNESOTA  *****

CITY           SKY/WX    TMP DP  RH WIND       PRES   REMARKS
FLAG ISLAND    CLOUDY    34  34 100 CALM      29.53S
WARROAD        CLOUDY    34  30  86 CALM      29.54R
ROSEAU         FOG       34  30  86 NE5       29.53R VSB 1/4
HALLOCK        DRIZZLE   36  34  93 CALM      29.52R
THF RVR FALLS  CLOUDY    34  33  96 E5        29.52R
HALSTAD        NOT AVBL
FOSSTON        CLOUDY    32  32 100 E3        29.51R
BAUDETTE       CLOUDY    35  33  92 NE3       29.52S
WASKISH        CLOUDY    36  34  93 CALM      29.53R
CROOKSTON      MIX PCPN  36  34  93 E5        29.52R
$$
  *****  WEATHER ACROSS CENTRAL AND WEST MINNESOTA  *****

CITY           SKY/WX    TMP DP  RH WIND       PRES   REMARKS
BEMIDJI        CLOUDY    33  33 100 E5        29.51R FOG
PARK RAPIDS    FOG       35  33  92 CALM      29.49R VSB 1/2
WADENA         LGT RAIN  34  34 100 CALM      29.49R VSB 1/4
DETROIT LAKES  DRIZZLE   36  34  93 CALM      29.51R
MOORHEAD       CLOUDY    34  34 100 CALM      29.52R
FERGUS FALLS   DRIZZLE   36  36 100 CALM      29.54R
ELBOW LAKE     CLOUDY    34  34 100 CALM      29.49S FOG
MORRIS MN      FOG       34  34 100 CALM      29.48R VSB 1/4
STAPLES        FOG       34  34 100 CALM      29.50R VSB 1/2
WHEATON        FOG       43  43 100 CALM      29.51S VSB 1/2
$$
  *****  WEATHER ELSEWHERE ACROSS MINNESOTA  *****

CITY           SKY/WX    TMP DP  RH WIND       PRES   REMARKS
DULUTH         DRZL/FOG  34  34 100 E8        29.49R VSB 1
INTRNTL FALLS  CLOUDY    35  33  92 NE5       29.53R
ELY            CLOUDY    34  34 100 CALM      29.51R
CLOQUET        CLOUDY    34  34 100 CALM      29.50R FOG
BRAINERD       FOG       35  35 100 NE3       29.50R VSB 1/2
HIBBING        CLOUDY    34  34 100 CALM      29.51R
ALEXANDRIA     FOG       34  34 100 CALM      29.49R VSB 1/2
SAINT CLOUD    FOG       34  34 100 CALM      29.48R VSB 1/4
MINNEAPOLIS    FOG       37  35  92 CALM      29.48R VSB 3/4
$$

  *****  WEATHER ACROSS SOUTH DAKOTA  *****

CITY           SKY/WX    TMP DP  RH WIND       PRES   REMARKS
SIOUX FALLS    CLOUDY    32  29  88 NW12      29.50R WCI  23
BROOKINGS      CLOUDY    31  29  92 NW8       29.47R WCI  23
WATERTOWN      CLOUDY    30  29  96 NW5       29.47R
HURON          CLOUDY    31  29  92 NW5       29.51R
SISSETON         N/A     34  34 100 CALM      29.49R
ABERDEEN       CLOUDY    32  27  81 SW3       29.50R
MITCHELL       CLOUDY    33  30  88 NW10      29.52R WCI  25
PIERRE         FAIR      22  20  92 CALM      29.50R
MOBRIDGE       FAIR      24  20  84 CALM      29.49R
RAPID CITY     FAIR      28  24  85 W6        29.54R WCI  22
$$

  *****  SOME WEATHER IN NEARBY STATES *****

CITY           SKY/WX    TMP DP  RH WIND       PRES   REMARKS
GLASGOW MT     FAIR      22  18  85 S3        29.52R
GREAT FALLS MT FAIR      24  19  81 W6        29.57R WCI  17
CHEYENNE WY    FAIR      31  22  69 S3        29.51R
SCOTTSBLUFF NE FAIR      33  28  81 CALM      29.52R
OMAHA NE       FAIR      40  33  76 CALM      29.51R
DES MOINES IA  FAIR      41  38  89 S3        29.54R
DAVENPORT IA   CLOUDY    43  41  93 W7        29.56R
CHICAGO IL     FAIR      48  42  80 SW3       29.54R
EAU CLAIRE WI  FOG       35  32  88 CALM      29.48R VSB 1/2
LA CROSSE WI   CLOUDY    43  40  89 SE5       29.50R FOG
$$

  *****  SOME NATIONAL WEATHER *****

CITY           SKY/WX    TMP DP  RH WIND       PRES   REMARKS
LA GUARDIA NY  CLOUDY    48  44  86 SW7       29.82R FOG
RALEIGH NC     LGT RAIN  54  53  97 E6        29.71F FOG
ATLANTA GA     MOCLDY    59  57  93 SW5       29.69R
NEW ORLEANS LA CLOUDY    73  71  93 S13G21    29.50F
OKLAHOMA CITY  MOCLDY    57  38  48 E10       29.36S
ALBUQUERQUE NM FAIR      39  20  46 W18G29    29.63R
SALT LAKE CITY MOCLDY    34  29  82 S5        29.79R
LOS ANGELES CA MOCLDY    56  46  69 SW12      29.99S
BOISE ID       CLOUDY    36  31  82 SE3       29.72R
SEATTLE WA     LGT RAIN  46  42  86 CALM      29.48R
$$

*** WEATHER ACROSS MANITOBA...SASKATCHEWAN AND ONTARIO ***
                ***ONTARIO***

CITY           SKY/WX    TMP DP  RH WIND       PRES   REMARKS
GERALDTON      CLOUDY    32  32 100 E7        29.64S
THUNDER BAY    CLOUDY    36  36 100 NE10G18   29.57S FOG
SIOUX LOOKOUT  DRZL/FOG  36  34  93 E5        29.57R VSB 3/4
TORONTO        FOG       39  39 100 CALM      29.73R VSB 3/8
BIG TROUT LK   CLOUDY    28  27  93 E8        29.74R WCI  20
PICKLE LAKE    FRZ DRZL  30  28  93 E7        29.63R WCI  23
DRYDEN         FOG       34  34 100 NE5       29.55R VSB 3/8
KENORA         CLOUDY    34  34 100 E7        29.54R FOG
$$
                *** MANITOBA***

CITY           SKY/WX    TMP DP  RH WIND       PRES   REMARKS
BRANDON        CLOUDY    34  32  93 E7        29.49R FOG
DAUPHIN        CLOUDY    34  32  93 E8        29.50R FOG
ISLAND LAKE    NOT AVBL
PILOT MOUND      N/A     32  32 100 SE6         N/A
THE PAS        FOG       34  32  93 E7        29.54R VSB 1/2
THOMPSON       FRZ RAIN  30  28  93 E6        29.65R FOG     WCI  24
WINNIPEG       CLOUDY    36  34  93 E3        29.54R
LYNN LAKE      LGT SNOW  28  28 100 E7        29.63R WCI  21
CHURCHILL      CLOUDY    16  14  93 SE14      29.87S WCI   1
GILLAM         LGT SNOW  27  25  93 E6        29.74R FOG     WCI  20
$$
                ***SASKATCHEWAN***

CITY           SKY/WX    TMP DP  RH WIND       PRES   REMARKS
ESTEVAN        FOG       25  25 100 W8        29.47R VSB 1/4 WCI  16
KINDERSLEY     CLOUDY    27  27 100 NW9       29.55R FOG     WCI  17
LLOYDMINSTER   CLOUDY    28  27  93 N10       29.61R FOG     WCI  19
PRINCE ALBERT  FLURRIES  27  23  86 N12       29.52R WCI  16
REGINA         FLURRIES  25  23  93 NW10      29.49R WCI  15
YORKTON        LGT SNOW  30  30 100 S2        29.46R   C1F1C2F2C3F3C4F4C5F5C6F6C7F7C8F8C9F9CaFaCbFbCcFcCdFdCe!


USA.gov is the U.S. government's official web portal to all federal, state and local government web resources and services.